PUA10 SUCA-SAZM

Flight info

Callsign PUA10
Flight time N/A
Altitude 7000
Route PTA W59 TEDAR DCT MUDNO MUDNO1U
Aircraft DA62/L-SDFGRY/C

Departure

Time 2026-05-04 02:33
Airport Colonia Laguna de Los Patos International Airport (SUCA)

Arrival

Time N/A
Airport Ástor Piazzola International Airport (SAZM)
Time Latitude Longitude Altitude Speed Heading
2026-05-04 02:26 -34.45372 -57.77677 70 ft 0 kts 118°
2026-05-04 02:32 -34.45390 -57.77635 67 ft 29 kts 117°
2026-05-04 02:33 -34.45592 -57.77164 66 ft 94 kts 118°
2026-05-04 02:33 -34.45958 -57.76387 367 ft 107 kts 117°
2026-05-04 02:33 -34.46419 -57.75705 796 ft 112 kts 148°
2026-05-04 02:33 -34.47251 -57.75541 1077 ft 130 kts 187°
2026-05-04 02:34 -34.48233 -57.75664 1238 ft 153 kts 188°
2026-05-04 02:34 -34.49340 -57.75828 1440 ft 164 kts 189°
2026-05-04 02:34 -34.50469 -57.75980 1803 ft 161 kts 189°
2026-05-04 02:34 -34.51576 -57.76103 2208 ft 157 kts 189°
2026-05-04 02:35 -34.52334 -57.76508 1567 ft 175 kts 233°
2026-05-04 02:35 -34.52735 -57.77310 2256 ft 103 kts 284°
2026-05-04 02:35 -34.52697 -57.78263 2214 ft 126 kts 291°
2026-05-04 02:35 -34.52866 -57.79407 2115 ft 156 kts 254°
2026-05-04 02:36 -34.53466 -57.80175 2170 ft 166 kts 226°
2026-05-04 02:36 -34.54615 -57.80769 1979 ft 194 kts 194°
2026-05-04 02:36 -34.55994 -57.80972 1805 ft 204 kts 187°
2026-05-04 02:36 -34.57422 -57.81113 1620 ft 207 kts 186°
2026-05-04 02:37 -34.58594 -57.81142 1502 ft 207 kts 168°
2026-05-04 02:37 -34.59709 -57.80127 1281 ft 204 kts 123°
2026-05-04 02:37 -34.60434 -57.78670 1116 ft 198 kts 103°
2026-05-04 02:37 -34.60466 -57.77086 973 ft 185 kts 76°
2026-05-04 02:38 -34.60243 -57.75557 823 ft 182 kts 68°
2026-05-04 02:38 -34.59765 -57.74159 663 ft 178 kts 56°
2026-05-04 02:38 -34.59090 -57.72952 659 ft 167 kts 43°
2026-05-04 02:38 -34.58109 -57.72301 586 ft 162 kts 12°
2026-05-04 02:39 -34.56988 -57.72073 467 ft 165 kts
2026-05-04 02:39 -34.55852 -57.71823 329 ft 168 kts 10°
2026-05-04 02:39 -34.54706 -57.71563 165 ft 171 kts
2026-05-04 02:39 -34.53529 -57.71585 70 ft 167 kts 351°
2026-05-04 02:40 -34.45372 -57.77677 70 ft 0 kts 118°
2026-05-04 02:44 -34.45412 -57.77583 66 ft 44 kts 121°
2026-05-04 02:44 -34.45627 -57.77087 52 ft 96 kts 117°
2026-05-04 02:44 -34.45976 -57.76238 261 ft 117 kts 115°
2026-05-04 02:44 -34.46364 -57.75349 667 ft 122 kts 118°
2026-05-04 02:45 -34.47057 -57.74692 999 ft 139 kts 160°
2026-05-04 02:45 -34.48032 -57.74504 1337 ft 147 kts 180°
2026-05-04 02:45 -34.49070 -57.74657 1611 ft 152 kts 197°
2026-05-04 02:45 -34.50080 -57.74917 2092 ft 143 kts 199°
2026-05-04 02:46 -34.51011 -57.75235 2540 ft 134 kts 215°
2026-05-04 02:46 -34.51779 -57.75837 2858 ft 137 kts 225°
2026-05-04 02:46 -34.52549 -57.76508 3268 ft 132 kts 226°
2026-05-04 02:46 -34.53223 -57.77132 3850 ft 113 kts 227°
2026-05-04 02:47 -34.53810 -57.77663 4409 ft 99 kts 226°
2026-05-04 02:47 -34.54328 -57.78103 4894 ft 90 kts 225°
2026-05-04 02:47 -34.54836 -57.78498 5313 ft 82 kts 223°
2026-05-04 02:47 -34.55309 -57.78871 5675 ft 79 kts 224°
2026-05-04 02:48 -34.55820 -57.79161 5951 ft 93 kts 213°
2026-05-04 02:48 -34.56435 -57.79486 6295 ft 98 kts 213°
2026-05-04 02:48 -34.57100 -57.79810 6628 ft 106 kts 207°
2026-05-04 02:48 -34.57823 -57.79962 6998 ft 113 kts 196°
2026-05-04 02:49 -34.58679 -57.80193 7053 ft 143 kts 202°
2026-05-04 02:49 -34.59725 -57.80539 7055 ft 166 kts 202°
2026-05-04 02:49 -34.60869 -57.80938 7171 ft 172 kts 202°
2026-05-04 02:49 -34.62056 -57.81318 7173 ft 185 kts 194°
2026-05-04 02:50 -34.62911 -57.80714 4173 ft 139 kts 193°
2026-05-04 02:50 -34.62492 -57.81328 947 ft 179 kts 353°
2026-05-04 02:50 -34.61637 -57.81389 1318 ft 88 kts 353°
2026-05-04 02:50 -34.61029 -57.81355 1190 ft 94 kts 358°
2026-05-04 02:51 -34.60326 -57.81268 1258 ft 107 kts
2026-05-04 02:51 -34.59569 -57.81208 1340 ft 111 kts
2026-05-04 02:51 -34.58800 -57.81102 1445 ft 113 kts
2026-05-04 02:51 -34.58041 -57.80816 1522 ft 115 kts 11°
2026-05-04 02:52 -34.57268 -57.80671 1609 ft 111 kts 351°
2026-05-04 02:52 -34.56581 -57.80583 1685 ft 114 kts
2026-05-04 02:52 -34.55815 -57.80315 1764 ft 114 kts
2026-05-04 02:52 -34.55030 -57.80174 1869 ft 115 kts
2026-05-04 02:53 -34.54285 -57.79828 2122 ft 106 kts 20°
2026-05-04 02:53 -34.53630 -57.79340 2086 ft 126 kts 23°
2026-05-04 02:53 -34.52832 -57.78645 1558 ft 153 kts 25°
2026-05-04 02:53 -34.51984 -57.78102 1609 ft 141 kts 19°
2026-05-04 02:54 -34.51074 -57.77475 1248 ft 157 kts 36°
2026-05-04 02:54 -34.50312 -57.76650 942 ft 134 kts 34°
2026-05-04 02:54 -34.49660 -57.75957 528 ft 113 kts 37°
2026-05-04 02:54 -34.49148 -57.75457 437 ft 82 kts 27°
2026-05-04 02:55 -34.48174 -57.75121 286 ft 68 kts
2026-05-04 02:55 -34.47705 -57.75080 222 ft 68 kts
2026-05-04 02:55 -34.47235 -57.75161 254 ft 76 kts 334°
2026-05-04 02:56 -34.46739 -57.75498 297 ft 77 kts 329°
2026-05-04 02:56 -34.46382 -57.75828 140 ft 59 kts 318°
2026-05-04 02:56 -34.46088 -57.76167 71 ft 65 kts 315°
2026-05-04 02:56 -34.45851 -57.76577 43 ft 44 kts 282°
2026-05-04 02:57 -34.45372 -57.77677 70 ft 0 kts 118°